Location: Huntsville
(41.2590°N, 111.7678°W)
Time: 17:19:00
(UTC+00:00)

Courier 1B Rocket - Pass Details

Date: 14 June 2021
Orbit: 920 x 1202 km, 28.2° (Epoch: 02 August)

Event Time Altitude Azimuth Distance (km) Brightness Sun altitude
Rises 05:49:30 0° 240° (WSW) 3,576 7.9 -21.6°
Reaches altitude 10° 05:52:37 10° 226° (SW) 2,613 7.0 -21.8°
Enters shadow 05:53:30 13° 221° (SW) 2,380 6.8 -21.9°
Maximum altitude 05:57:28 24° 175° (S) 1,810 - -22.2°
Drops below altitude 10° 06:02:18 10° 124° (SE) 2,615 - -22.5°
Sets 06:05:25 0° 111° (ESE) 3,579 - -22.7°
